| time (UTC) | temp F | wind direction | speed MPH | gust MPH | rain 1hr in | rain 24hr in | rain mn in | humidity % | barometer mb |
| 20260506033505 | 48 | 34 | 3.0 | 8.0 | 0.00 | 0.00 | 0.00 | 81 | 1011.0 |
| 20260506033005 | 48 | 35 | 4.0 | 7.0 | 0.00 | 0.00 | 0.00 | 81 | 1011.1 |
| 20260506030504 | 49 | 35 | 2.0 | 7.0 | 0.00 | 0.00 | 0.00 | 81 | 1011.1 |
| 20260506030005 | 49 | 35 | 5.0 | 7.0 | 0.00 | 0.00 | 0.00 | 81 | 1011.1 |
| 20260506023505 | 49 | 39 | 0.0 | 8.0 | 0.00 | 0.00 | 0.00 | 82 | 1011.0 |
| 20260506023005 | 49 | 39 | 2.0 | 8.0 | 0.00 | 0.00 | 0.00 | 81 | 1011.0 |
| 20260506020005 | 50 | 41 | 3.0 | 6.0 | 0.00 | 0.00 | 0.00 | 81 | 1011.1 |
| 20260506013005 | 50 | 42 | 1.0 | 6.0 | 0.00 | 0.00 | 0.00 | 79 | 1011.1 |
| 20260506010005 | 50 | 42 | 1.0 | 7.0 | 0.00 | 0.00 | 0.00 | 77 | 1011.1 |
| 20260506003005 | 51 | 40 | 2.0 | 7.0 | 0.00 | 0.00 | 0.00 | 77 | 1011.2 |
| 20260506000505 | 52 | 53 | 2.0 | 12.0 | 0.00 | 0.00 | 0.00 | 77 | 1011.2 |
| 20260505233005 | 52 | 68 | 2.0 | 10.0 | 0.00 | 0.00 | 0.00 | 77 | 1011.1 |
| 20260505230006 | 53 | 41 | 2.0 | 6.0 | 0.00 | 0.00 | 0.00 | 77 | 1011.1 |
| 20260505223505 | 53 | 39 | 0.0 | 3.0 | 0.00 | 0.00 | 0.00 | 77 | 1011.0 |
| 20260505223005 | 54 | 39 | 0.0 | 7.0 | 0.00 | 0.00 | 0.00 | 77 | 1011.0 |
| 20260505220504 | 54 | 39 | 2.0 | 7.0 | 0.00 | 0.00 | 0.00 | 75 | 1010.8 |
| 20260505213505 | 54 | 43 | 3.0 | 10.0 | 0.00 | 0.00 | 0.00 | 73 | 1010.8 |
| 20260505213005 | 54 | 30 | 4.0 | 10.0 | 0.00 | 0.00 | 0.00 | 74 | 1010.7 |
| 20260505203505 | 56 | 22 | 3.0 | 10.0 | 0.00 | 0.00 | 0.00 | 74 | 1010.5 |
| 20260505200505 | 56 | 20 | 3.0 | 9.0 | 0.00 | 0.00 | 0.00 | 73 | 1010.4 |
| 20260505193006 | 57 | 19 | 0.0 | 7.0 | 0.00 | 0.00 | 0.00 | 72 | 1010.0 |
| 20260505190006 | 57 | 20 | 3.0 | 7.0 | 0.00 | 0.00 | 0.00 | 71 | 1009.9 |
| 20260505183505 | 58 | 22 | 4.0 | 12.0 | 0.00 | 0.00 | 0.00 | 70 | 1009.8 |
| 20260505180005 | 58 | 18 | 0.0 | 0.0 | 0.00 | 0.00 | 0.00 | 73 | 1009.7 |
| 20260505173504 | 58 | 18 | 0.0 | 3.0 | 0.00 | 0.00 | 0.00 | 72 | 1009.8 |
| 20260505173005 | 58 | 18 | 1.0 | 3.0 | 0.00 | 0.00 | 0.00 | 72 | 1009.9 |
| 20260505170005 | 58 | 18 | 1.0 | 6.0 | 0.00 | 0.00 | 0.00 | 71 | 1010.0 |
| 20260505160504 | 60 | 20 | 3.0 | 9.0 | 0.00 | 0.00 | 0.00 | 67 | 1010.0 |
| 20260505153005 | 60 | 18 | 1.0 | 5.0 | 0.00 | 0.00 | 0.00 | 68 | 1010.0 |
| 20260505150505 | 59 | 18 | 3.0 | 7.0 | 0.00 | 0.00 | 0.00 | 68 | 1010.1 |
| 20260505140505 | 59 | 16 | 3.0 | 7.0 | 0.00 | 0.00 | 0.00 | 68 | 1010.2 |
| 20260505123505 | 59 | 10 | 2.0 | 7.0 | 0.00 | 0.00 | 0.00 | 69 | 1010.6 |
| 20260505120504 | 59 | 5 | 3.0 | 10.0 | 0.00 | 0.00 | 0.00 | 71 | 1010.6 |
| 20260505113504 | 58 | 27 | 5.0 | 9.0 | 0.00 | 0.00 | 0.00 | 73 | 1010.8 |
| 20260505113005 | 57 | 45 | 1.0 | 9.0 | 0.00 | 0.00 | 0.00 | 74 | 1010.8 |
| 20260505110504 | 56 | 56 | 1.0 | 9.0 | 0.00 | 0.00 | 0.00 | 75 | 1011.0 |
| 20260505100505 | 55 | 17 | 1.0 | 7.0 | 0.00 | 0.00 | 0.00 | 79 | 1011.2 |
| 20260505100005 | 55 | 16 | 2.0 | 5.0 | 0.00 | 0.00 | 0.00 | 78 | 1011.2 |
| 20260505083005 | 54 | 21 | 1.0 | 7.0 | 0.00 | 0.00 | 0.00 | 80 | 1011.6 |
| 20260505080005 | 54 | 10 | 3.0 | 12.0 | 0.00 | 0.00 | 0.00 | 81 | 1011.6 |
| 20260505073505 | 54 | 24 | 5.0 | 12.0 | 0.00 | 0.00 | 0.00 | 81 | 1011.5 |
| 20260505073004 | 54 | 5 | 4.0 | 12.0 | 0.00 | 0.00 | 0.00 | 82 | 1011.5 |
| 20260505070504 | 54 | 27 | 5.0 | 9.0 | 0.00 | 0.00 | 0.00 | 83 | 1011.6 |
| 20260505063504 | 53 | 35 | 1.0 | 5.0 | 0.00 | 0.00 | 0.00 | 86 | 1011.7 |
| 20260505063004 | 53 | 35 | 2.0 | 3.0 | 0.00 | 0.00 | 0.00 | 87 | 1011.7 |
| 20260505060504 | 52 | 35 | 1.0 | 3.0 | 0.00 | 0.00 | 0.00 | 88 | 1011.6 |
| 20260505053504 | 51 | 35 | 2.0 | 3.0 | 0.00 | 0.00 | 0.00 | 89 | 1011.7 |
| 20260505050505 | 51 | 35 | 2.0 | 5.0 | 0.00 | 0.00 | 0.00 | 88 | 1011.7 |